OpenBCM V2.0.3 (Linux)

Packet Radio Mailbox

IZ3LSV

[San Dona' di P. JN]

 Login: GUEST





  
I0OJJ  > KEPS     04.05.26 02:27l 322 Lines 15382 Bytes #39 (0) @ AMSAT
BID : ORB26124.1
Read: GUEST
Subj: 2Line Orbital Elements 26124.AMSAT
Path: IZ3LSV<IK6IHL<IK7NXU<HB9ON<DK0WUE<PI8ZTM<IR0AAB<I0OJJ
Sent: 260504/0021z @:I0OJJ.ITA.EU [Rome] obcm1.13-38-g65b7
From: I0OJJ @ I0OJJ.ITA.EU (Gustavo)
To:   KEPS @ AMSAT
X-Info: This message was generated automatically


QST de W1STR

AMSAT Orbital Elements for Amateur Satellites in TLE Format
From Orbital Analysis Office
New England Sci-Tech STEM Education Center
Natick MA May 04, 2026
To all radio amateurs


These element sets describe the orbits of various satellites 
in use by the amateur radio community. For details see:
www.amsat.org/keplerian-elements-formats/

A daily update of element sets is available at:
www.amsat.org/tle/daily-bulletin.txt
or without bulletin text:
www.amsat.org/tle/dailytle.txt


AO-07
1 07530U 74089B   26123.62882699 -.00000049  00000-0 -16961-4 0  9999
2 07530 101.9924 136.4079 0012026 214.7140 265.4294 12.53697385354938
UO-11
1 14781U 84021B   26123.85325525  .00001478  00000-0  15641-3 0  9995
2 14781  97.8028  89.9359 0007051 342.4754  17.6219 14.90677988250521
AO-27
1 22825U 93061C   26123.73784764  .00000109  00000-0  58612-4 0  9994
2 22825  98.6898 191.1625 0007574 225.1174 134.9394 14.30930020700641
FO-29
1 24278U 96046B   26123.57960593 -.00000008  00000-0  29091-4 0  9990
2 24278  98.5289 338.5492 0349297 212.0570 145.8894 13.53272260467132
GO-32
1 25397U 98043D   26123.53019132  .00000061  00000-0  46520-4 0  9996
2 25397  99.0063 115.1658 0001475  31.2440 328.8825 14.24419514444972
ISS
1 25544U 98067A   26123.81265450  .00005869  00000-0  11427-3 0  9991
2 25544  51.6305 159.7493 0007297  20.0235 340.1038 15.49081120564877
NO-44
1 26931U 01043C   26123.73737096  .00000143  00000-0  84396-4 0  9997
2 26931  67.0524 359.2393 0006413 263.9909  96.0463 14.31938734284086
SO-50
1 27607U 02058C   26123.78334288  .00001317  00000-0  17233-3 0  9995
2 27607  64.5519 266.3578 0075624 270.5579  88.6862 14.82950396257874
CO-55
1 27844U 03031E   26123.56975645  .00000309  00000-0  15277-3 0  9990
2 27844  98.6751 132.6882 0008724 321.2101  38.8451 14.24307791185320
RS-22
1 27939U 03042A   26123.87582214  .00001155  00000-0  18639-3 0  9992
2 27939  98.3461 306.9860 0012339  53.1833  54.1498 14.73389095209029
CO-65
1 32785U 08021C   26123.89372970  .00006126  00000-0  39091-3 0  9995
2 32785  97.8261 104.4132 0009174 169.1161 191.0267 15.09034392978513
CO-66
1 32791U 08021J   26123.52326605  .00020122  00000-0  66837-3 0  9996
2 32791  97.7524 119.3463 0005107 103.0281 257.1530 15.31235732980454
RS-30
1 32953U 08025A   26123.83552091  .00000027  00000-0  11965-3 0  9998
2 32953  82.5082  23.0269 0020544  49.4872 310.7994 12.43177748814189
SRMSAT
1 37841U 11058D   26123.89204050  .00000422  00000-0  85075-4 0  9997
2 37841  19.9734 327.5810 0011781  76.8420 314.3522 14.11565536751559
ZACUBE-1
1 39417U 13066B   26123.87648492  .00005512  00000-0  43003-3 0  9998
2 39417  97.8130  85.9747 0043211  41.9670 318.4851 15.00835925674085
Delfi-N3xt
1 39428U 13066N   26123.73057391  .00010321  00000-0  90722-3 0  9991
2 39428  97.8357  44.0998 0075134 356.3789   3.6878 14.94557907667981
GOMX-1
1 39430U 13066Q   26123.85384793  .00002012  00000-0  30870-3 0  9992
2 39430  97.6508 327.1105 0127896 219.4138 139.7711 14.69289830663404
LO-74
1 39440U 13066AA  26123.84679084  .00003203  00000-0  30054-3 0  9999
2 39440  97.8882  72.6589 0058051 172.9920 187.2124 14.93441761670378
AO-73
1 39444U 13066AE  26123.63401814  .00009569  00000-0  60159-3 0  9994
2 39444  97.8259  94.1780 0036520 358.9000   1.2142 15.08895822672942
DTUSAT-2
1 40030U 14033W   26123.51498823  .00008209  00000-0  45017-3 0  9991
2 40030  98.0870 118.4298 0008909  38.9511 321.2360 15.14432848645920
LILACSAT-2
1 40908U 15049K   26123.81105911  .00018295  00000-0  32752-3 0  9997
2 40908  97.4706 159.0027 0008437  64.8275 295.3850 15.49993879588876
Horyu-4
1 41340U 16012D   26123.87956138  .00152957  00000-0  94589-3 0  9990
2 41340  30.9903  38.5776 0006291 307.1966  52.8116 15.75507055563786
Lapan A3
1 41603U 16040E   26123.86887441  .00004224  00000-0  13543-3 0  9996
2 41603  97.1489 121.4828 0010737 164.2427 195.9152 15.32821536548021
CAS-2T
1 41847U 16066G   26123.84201105  .00000696  00000-0  10804-3 0  9995
2 41847  98.3828 200.0791 0340899 264.0994  92.1252 14.44578283498390
TechnoSat
1 42829U 17042E   26123.69734186  .00003505  00000-0  25261-3 0  9999
2 42829  97.4246 283.0703 0016031 242.7811 117.1782 15.04690497480013
AO-91
1 43017U 17073E   26123.61215061  .00009430  00000-0  41477-3 0  9991
2 43017  97.4762 351.7568 0154295 122.1547 239.4760 15.11907448458654
S-Net D
1 43186U 18014G   26123.72383120  .00005251  00000-0  27465-3 0  9996
2 43186  97.5398  28.8000 0008726 160.5977 199.5590 15.16257141452025
S-Net B
1 43187U 18014H   26123.73441784  .00005604  00000-0  29305-3 0  9996
2 43187  97.5403  28.7957 0009530 157.2349 202.9308 15.16227824452024
S-Net A
1 43188U 18014J   26123.72292664  .00005270  00000-0  27555-3 0  9991
2 43188  97.5412  28.9848 0009366 157.5785 202.5858 15.16263963452020
S-Net C
1 43189U 18014K   26123.67205440  .00005726  00000-0  29932-3 0  9999
2 43189  97.5429  29.0022 0010938 152.6305 207.5506 15.16218256450563
Ten-Koh
1 43677U 18084G   26123.51364204  .00002275  00000-0  17508-3 0  9997
2 43677  98.0785 314.0014 0007355 267.0482  92.9900 15.02752233409459
PO-101
1 43678U 18084H   26123.81917348  .00003633  00000-0  29513-3 0  9992
2 43678  98.1071 318.1343 0012674 323.9622  36.0745 15.00234639409568
QO-100
1 43700U 18090A   26123.84316308  .00000152  00000-0  00000+0 0  9996
2 43700   0.0164 278.2348 0001571 149.4363 123.4237  1.00270739 27230
MinXSS-2
1 43758U 18099A   26123.73720042  .00036398  00000-0  79548-3 0  9998
2 43758  97.4555 198.8198 0008430  74.9775 285.2405 15.44054001407261
AO-95
1 43770U 18099N   26123.82191797  .00011916  00000-0  46876-3 0  9998
2 43770  97.4412 184.2585 0010168 138.5177 221.6835 15.25754560406457
SNUSat 2
1 43782U 18099AA  26123.67718780  .00009329  00000-0  42088-3 0  9997
2 43782  97.4091 177.7602 0012063  93.3781 266.8835 15.21156461406267
SnugLite
1 43784U 18099AC  26123.70459544  .00013040  00000-0  50621-3 0  9990
2 43784  97.3902 178.4474 0004461  92.8380 267.3369 15.26210961406535
ITASat 1
1 43786U 18099AE  26123.68070153  .00007884  00000-0  38459-3 0  9998
2 43786  97.4060 176.0917 0013887 142.8552 217.3646 15.18483961406152
EAGLET 1
1 43790U 18099AJ  26123.66860870  .00004529  00000-0  26262-3 0  9996
2 43790  97.4266 174.5194 0012523 134.4678 225.7579 15.12599467405607
ESEO
1 43792U 18099AL  26123.67603659  .00001254  00000-0  94590-4 0  9991
2 43792  97.4001 162.9662 0013373 121.3875 238.8661 15.04103355405116
JO-97
1 43803U 18099AX  26123.83765257  .00018076  00000-0  58169-3 0  9996
2 43803  97.4158 186.5610 0007054  77.4893 282.7138 15.32260297406834
Suomi 100
1 43804U 18099AY  26123.67152084  .00012968  00000-0  48487-3 0  9993
2 43804  97.4218 184.2584 0011597  81.7053 278.5500 15.27406741406623
ISAT
1 43879U 18111D   26123.75271066  .00075443  00000-0  98464-3 0  9998
2 43879  97.5909  55.8184 0008684 101.4843 258.7388 15.58394666404237
UWE-4
1 43880U 18111E   26123.71154353  .00033666  00000-0  75050-3 0  9992
2 43880  97.5865  50.1529 0010561 117.4778 242.7545 15.43459915403917
Sparrow
1 43881U 18111F   26123.54095130  .00109098  00000-0  11370-2 0  9998
2 43881  97.6129  60.5514 0007378 120.5972 239.6015 15.64157783404373
Prox-1
1 44339U 19036A   26123.45728529  .00015822  00000-0  15882-2 0  9992
2 44339  23.9961  52.7829 0006422 233.8960 126.0944 14.89559754366797
Taurus 1
1 44530U 19059C   26123.85038691  .00008350  00000-0  13486-2 0  9994
2 44530  98.6378 285.9542 0009717  94.0027 266.2289 14.71618224352124
TO-108
1 44881U 19093C   26123.81915699  .00001124  00000-0  13316-3 0  9994
2 44881  97.7543 197.1314 0012361 229.4331 130.5810 14.86446720344826
RS-44
1 44909U 19096E   26123.75446955  .00000027  00000-0  70480-4 0  9992
2 44909  82.5254   9.2333 0216445 248.1964 109.5985 12.79748003296667
SALSAT
1 46495U 20068K   26123.52606125  .00008713  00000-0  31035-3 0  9999
2 46495  97.8858 123.8966 0011720  98.8202 261.4364 15.29141113308533
CSS (TIANHE-1)
1 48274U 21035A   26123.76503953  .00028891  00000-0  30856-3 0  9991
2 48274  41.4671 232.3771 0005611 325.0701  34.9770 15.63252154286220
CUTE
1 49263U 21088D   26123.64335339  .00085883  00000-0  55970-3 0  9994
2 49263  97.4205 219.2796 0000513 128.4945 231.6366 15.75647240255506
TeikyoSat 4
1 49396U 21102B   26123.63849410  .00002587  00000-0  16557-3 0  9995
2 49396  97.3701 154.8509 0013717  87.5727 272.7073 15.09347939246007
Z-Sat
1 49399U 21102E   26123.83761277  .00005484  00000-0  27240-3 0  9994
2 49399  97.3358 160.5086 0017900  46.5989 313.6732 15.17928929246713
KOSEN 1
1 49402U 21102H   26123.63249455  .00007968  00000-0  30971-3 0  9990
2 49402  97.3222 166.6669 0013833  13.0671 347.0923 15.26225638247227
HO-113
1 50466U 21131B   26123.83388872  .00000786  00000-0  25675-3 0  9999
2 50466  98.4960 216.4696 0003249 217.4718 142.6245 14.41315476228722
SNUGLITE 2
1 52899U 22065F   26123.81988576  .00001070  00000-0  21208-3 0  9998
2 52899  98.2141 268.7464 0008066 154.7751 205.3847 14.64263114204509
UmKA 1 (RS40S)
1 57172U 23091G   26123.87109135  .00005657  00000-0  26301-3 0  9993
2 57172  97.5078 182.7485 0011208 273.9954  85.9999 15.20318508157270
CubeBel-2 (EU11S)
1 57175U 23091K   26123.80107455  .00013115  00000-0  48011-3 0  9992
2 57175  97.5076 186.6522 0008463 269.9022  90.1247 15.28135093157522
RS-38S
1 57189U 23091Z   26123.82748042  .00016804  00000-0  50220-3 0  9995
2 57189  97.5112 192.4688 0006777 217.5243 142.5528 15.34638177157887
SONATE-2
1 59112U 24043Q   26123.85925354  .00036966  00000-0  53838-3 0  9996
2 59112  97.5490 271.6633 0006373   9.7223 350.4153 15.55622453120994
